DJ2DS-13 Weather Reports


time (UTC)temp
C
wind
direction
speed
KPH
gust
KPH
rain 1hr
cm
rain 24hr
cm
rain mn
cm
humidity
%
barometer
mb
20260506002639 8 35 0.0 1.6 0.00 0.00 0.00 89 1008.4
20260506002142 8 35 0.0 1.6 0.00 0.00 0.00 89 1008.5
20260506001639 8 35 1.6 1.6 0.00 0.00 0.00 89 1008.5
20260506001141 8 35 0.0 3.2 0.00 0.00 0.00 89 1008.5
20260506000638 8 35 0.0 3.2 0.00 0.00 0.00 89 1008.5
20260506000139 9 55 1.6 3.2 0.00 0.00 0.00 89 1008.5
20260505235639 9 69 1.6 3.2 0.00 0.00 0.00 88 1008.6
20260505235139 9 56 1.6 3.2 0.00 0.00 0.00 88 1008.6
20260505234639 9 56 1.6 6.4 0.00 0.00 0.00 88 1008.6
20260505234140 9 24 1.6 6.4 0.00 0.00 0.00 88 1008.6
20260505233639 10 18 1.6 4.8 0.00 0.00 0.00 88 1008.7
20260505233140 10 45 3.2 6.4 0.00 0.00 0.00 88 1008.6
20260505232639 9 37 3.2 6.4 0.00 0.00 0.00 88 1008.7
20260505232139 9 21 3.2 4.8 0.00 0.00 0.00 88 1008.7
20260505231639 10 21 1.6 8.0 0.00 0.00 0.00 88 1008.9
20260505231139 10 73 3.2 9.7 0.00 0.00 0.00 88 1008.8
20260505230639 10 11 1.6 9.7 0.00 0.00 0.00 87 1008.9
20260505230139 9 6 1.6 9.7 0.00 0.00 0.00 87 1008.9
20260505225639 9 7 3.2 9.7 0.00 0.00 0.00 87 1008.8
20260505225138 9 1 1.6 4.8 0.00 0.00 0.00 87 1008.9
20260505224638 10 28 1.6 4.8 0.00 0.00 0.00 86 1009.0
20260505224139 9 16 3.2 6.4 0.00 0.00 0.00 86 1009.1
20260505223638 9 25 3.2 6.4 0.00 0.00 0.00 86 1009.2
20260505223139 9 27 3.2 9.7 0.00 0.00 0.00 86 1009.2
20260505222638 9 41 3.2 9.7 0.00 0.00 0.00 86 1009.3
20260505222139 9 27 3.2 4.8 0.00 0.00 0.00 85 1009.3
20260505221639 9 7 3.2 4.8 0.00 0.00 0.00 85 1009.3
20260505221136 9 14 3.2 4.8 0.00 0.00 0.00 85 1009.3
20260505220640 9 37 1.6 4.8 0.00 0.00 0.00 85 1009.3
20260505220137 9 20 3.2 8.0 0.00 0.00 0.00 85 1009.3
20260505215635 9 25 1.6 9.7 0.00 0.00 0.00 85 1009.4
20260505215134 9 35 3.2 9.7 0.00 0.00 0.00 84 1009.2
20260505214633 9 7 3.2 11.3 0.00 0.00 0.00 84 1009.3
20260505214134 9 17 3.2 11.3 0.00 0.00 0.00 84 1009.3
20260505213634 9 0 3.2 6.4 0.00 0.00 0.00 84 1009.2
20260505213134 9 20 3.2 9.7 0.00 0.00 0.00 85 1009.3
20260505212635 9 34 3.2 9.7 0.00 0.00 0.00 85 1009.3
20260505212135 9 41 3.2 6.4 0.00 0.00 0.00 85 1009.4
20260505211635 9 7 3.2 8.0 0.00 0.00 0.00 85 1009.3
20260505211134 9 3 3.2 8.0 0.00 0.00 0.00 85 1009.4
20260505210635 9 8 3.2 6.4 0.00 0.00 0.00 85 1009.5
20260505210134 9 21 3.2 6.4 0.00 0.00 0.00 86 1009.4
20260505205633 9 27 3.2 9.7 0.00 0.00 0.00 86 1009.4
20260505205133 9 30 4.8 9.7 0.00 0.00 0.00 86 1009.4
20260505204633 9 6 3.2 14.5 0.00 0.00 0.00 86 1009.5
20260505204133 9 6 3.2 14.5 0.00 0.00 0.00 86 1009.5
20260505203633 9 0 3.2 6.4 0.00 0.00 0.00 85 1009.6
20260505203134 9 8 3.2 8.0 0.00 0.00 0.00 85 1009.6
20260505202633 9 31 3.2 9.7 0.00 0.00 0.00 85 1009.6
20260505202131 9 0 3.2 9.7 0.00 0.00 0.00 85 1009.6
20260505201633 9 18 3.2 8.0 0.00 0.00 0.00 85 1009.6
20260505201131 9 20 3.2 16.1 0.00 0.00 0.00 84 1009.6
20260505200633 9 20 4.8 16.1 0.00 0.00 0.00 84 1009.6
20260505200130 9 4 3.2 6.4 0.00 0.00 0.00 84 1009.5
20260505195630 9 8 3.2 8.0 0.00 0.00 0.00 84 1009.5
20260505195134 9 17 3.2 9.7 0.00 0.00 0.00 84 1009.5
20260505194631 9 8 3.2 9.7 0.00 0.00 0.00 84 1009.4
20260505194129 9 20 4.8 11.3 0.00 0.00 0.00 84 1009.5
20260505193629 9 21 3.2 11.3 0.00 0.00 0.00 83 1009.6
20260505193129 9 14 3.2 9.7 0.00 0.00 0.00 84 1009.7
20260505192630 9 0 3.2 9.7 0.00 0.00 0.00 84 1009.6
20260505192128 9 14 3.2 6.4 0.00 0.00 0.00 84 1009.6
20260505191631 9 16 3.2 9.7 0.00 0.00 0.00 84 1009.5
20260505191129 9 0 3.2 14.5 0.00 0.00 0.00 84 1009.5
20260505190630 9 17 3.2 14.5 0.00 0.00 0.00 84 1009.5
20260505190129 9 20 4.8 14.5 0.00 0.00 0.00 84 1009.4
20260505185628 10 24 3.2 14.5 0.00 0.00 0.00 84 1009.5
20260505185128 10 17 3.2 9.7 0.00 0.00 0.00 85 1009.3
20260505184627 10 3 4.8 11.3 0.00 0.00 0.00 85 1009.3
20260505184127 10 21 3.2 14.5 0.00 0.00 0.00 85 1009.2
20260505183623 10 7 6.4 14.5 0.00 0.00 0.00 85 1009.3
20260505183123 10 13 3.2 9.7 0.00 0.00 0.00 85 1009.3
20260505182625 10 7 3.2 8.0 0.00 0.00 0.00 85 1009.3
20260505182121 10 3 3.2 14.5 0.00 0.00 0.00 85 1009.3
20260505181622 10 37 3.2 14.5 0.00 0.00 0.00 84 1009.4
20260505181122 10 48 3.2 9.7 0.00 0.00 0.00 84 1009.3
20260505180620 10 7 4.8 9.7 0.00 0.00 0.00 84 1009.3
20260505180119 10 0 3.2 8.0 0.00 0.00 0.00 84 1009.4
20260505175621 10 14 4.8 8.0 0.00 0.00 0.00 83 1009.3
20260505175117 10 21 3.2 9.7 0.00 0.00 0.00 84 1009.4
20260505174617 10 11 4.8 9.7 0.00 0.00 0.00 83 1009.4
20260505173617 10 6 3.2 11.3 0.00 0.00 0.00 84 1009.4
20260505173116 10 28 4.8 11.3 0.00 0.00 0.00 83 1009.4
20260505172616 10 11 4.8 9.7 0.00 0.00 0.00 83 1009.4
20260505172115 10 0 4.8 14.5 0.00 0.00 0.00 83 1009.5
20260505171614 10 4 6.4 14.5 0.00 0.00 0.00 83 1009.5
20260505171114 10 18 3.2 14.5 0.00 0.00 0.00 83 1009.6
20260505170611 10 27 4.8 14.5 0.00 0.00 0.00 83 1009.6
20260505170112 10 82 3.2 9.7 0.00 0.00 0.00 83 1009.6
20260505165610 10 351 4.8 9.7 0.00 0.00 0.00 83 1009.6
20260505165109 10 353 4.8 9.7 0.00 0.00 0.00 83 1009.6
20260505164609 10 14 4.8 17.7 0.00 0.00 0.00 83 1009.6
20260505164107 10 0 6.4 17.7 0.00 0.00 0.00 83 1009.6
20260505163607 10 8 6.4 16.1 0.00 0.00 0.00 83 1009.6
20260505163107 10 0 3.2 16.1 0.00 0.00 0.00 82 1009.6
20260505162608 10 24 6.4 16.1 0.00 0.00 0.00 82 1009.7
20260505162107 10 0 3.2 11.3 0.00 0.00 0.00 82 1009.7
20260505161605 11 14 4.8 11.3 0.00 0.00 0.00 81 1009.7
20260505161106 11 13 3.2 9.7 0.00 0.00 0.00 82 1009.7
20260505160605 11 11 4.8 9.7 0.00 0.00 0.00 82 1009.7
20260505160105 11 13 3.2 8.0 0.00 0.00 0.00 82 1009.8
20260505153102 11 21 3.2 16.1 0.00 0.00 0.00 82 1009.8
20260505152601 11 0 6.4 16.1 0.00 0.00 0.00 81 1009.9
20260505152057 11 17 3.2 6.4 0.00 0.00 0.00 80 1009.9
20260505151553 11 18 4.8 6.4 0.00 0.00 0.00 80 1009.9
20260505151052 11 313 3.2 6.4 0.00 0.00 0.00 80 1010.0
20260505150603 11 13 3.2 8.0 0.00 0.00 0.00 81 1009.9
20260505140551 12 0 4.8 6.4 0.00 0.00 0.00 79 1010.1
20260505125038 12 25 4.8 14.5 0.00 0.00 0.00 74 1010.5
20260505124539 12 51 4.8 11.3 0.00 0.00 0.00 76 1010.6
20260505124039 12 0 3.2 9.7 0.00 0.00 0.00 73 1010.7
20260505123538 12 31 4.8 9.7 0.00 0.00 0.00 74 1010.7
20260505123039 12 31 3.2 8.0 0.00 0.00 0.00 75 1010.7
20260505122538 12 18 3.2 8.0 0.00 0.00 0.00 73 1010.7
20260505122038 12 18 3.2 9.7 0.00 0.00 0.00 75 1010.6
20260505121537 12 44 3.2 9.7 0.00 0.00 0.00 74 1010.6
20260505121038 12 21 3.2 6.4 0.00 0.00 0.00 74 1010.6
20260505120538 12 25 3.2 9.7 0.00 0.00 0.00 76 1010.6
20260505120039 12 69 3.2 9.7 0.00 0.00 0.00 76 1010.5
20260505115538 11 51 3.2 6.4 0.00 0.00 0.00 75 1010.7
20260505115038 11 0 3.2 8.0 0.00 0.00 0.00 75 1010.7
20260505114538 11 8 3.2 8.0 0.00 0.00 0.00 75 1010.7
20260505114038 11 316 3.2 14.5 0.00 0.00 0.00 74 1010.6
20260505113538 11 18 3.2 14.5 0.00 0.00 0.00 75 1010.6
20260505113038 11 66 6.4 14.5 0.00 0.00 0.00 75 1010.6
20260505112535 11 51 4.8 14.5 0.00 0.00 0.00 75 1010.7
20260505112035 11 44 3.2 14.5 0.00 0.00 0.00 76 1010.7
20260505111535 11 52 3.2 8.0 0.00 0.00 0.00 77 1010.7
20260505111035 11 17 3.2 6.4 0.00 0.00 0.00 77 1010.6
20260505110535 11 11 4.8 11.3 0.00 0.00 0.00 77 1010.7
20260505102030 11 30 3.2 8.0 0.00 0.00 0.00 80 1010.8
20260505101530 11 17 3.2 6.4 0.00 0.00 0.00 80 1010.9
20260505101029 11 35 3.2 8.0 0.00 0.00 0.00 81 1010.9
20260505100530 11 17 3.2 8.0 0.00 0.00 0.00 82 1010.9
20260505100030 10 11 3.2 4.8 0.00 0.00 0.00 83 1011.0
20260505095529 10 30 3.2 8.0 0.00 0.00 0.00 82 1011.0
20260505095029 10 0 1.6 9.7 0.00 0.00 0.00 83 1011.1
20260505094527 10 48 4.8 9.7 0.00 0.00 0.00 83 1011.2
20260505094027 10 56 3.2 9.7 0.00 0.00 0.00 83 1011.2
20260505093527 10 48 3.2 8.0 0.00 0.00 0.00 84 1011.3
20260505093026 10 23 3.2 8.0 0.00 0.00 0.00 84 1011.4
20260505092525 10 61 4.8 9.7 0.00 0.00 0.00 84 1011.4
20260505092026 10 38 3.2 9.7 0.00 0.00 0.00 84 1011.5
20260505091524 10 38 3.2 8.0 0.00 0.00 0.00 84 1011.4
20260505091023 10 37 3.2 6.4 0.00 0.00 0.00 84 1011.5
20260505090522 10 21 3.2 14.5 0.00 0.00 0.00 84 1011.4
20260505090021 10 42 3.2 14.5 0.00 0.00 0.00 84 1011.3
20260505085522 10 54 3.2 11.3 0.00 0.00 0.00 84 1011.4
20260505085022 10 38 3.2 11.3 0.00 0.00 0.00 84 1011.3
20260505084521 10 52 4.8 11.3 0.00 0.00 0.00 84 1011.3
20260505084019 10 35 4.8 8.0 0.00 0.00 0.00 84 1011.4
20260505083519 10 24 3.2 8.0 0.00 0.00 0.00 83 1011.4
20260505083017 10 27 3.2 8.0 0.00 0.00 0.00 83 1011.3
20260505082518 10 27 3.2 8.0 0.00 0.00 0.00 83 1011.3
20260505082016 10 0 3.2 11.3 0.00 0.00 0.00 84 1011.3
20260505081516 10 0 3.2 11.3 0.00 0.00 0.00 83 1011.3
20260505081014 10 20 3.2 9.7 0.00 0.00 0.00 83 1011.2
20260505080514 10 39 3.2 9.7 0.00 0.00 0.00 83 1011.3
20260505080013 10 0 3.2 6.4 0.00 0.00 0.00 83 1011.3
20260505075515 10 59 3.2 9.7 0.00 0.00 0.00 83 1011.3
20260505075014 10 345 3.2 9.7 0.00 0.00 0.00 84 1011.2
20260505074014 10 0 1.6 6.4 0.00 0.00 0.00 84 1011.3
20260505073514 9 17 3.2 6.4 0.00 0.00 0.00 84 1011.2
20260505073013 9 34 3.2 6.4 0.00 0.00 0.00 84 1011.3
20260505072512 9 38 3.2 6.4 0.00 0.00 0.00 84 1011.3
20260505072012 9 0 3.2 4.8 0.00 0.00 0.00 84 1011.3
20260505071511 9 34 3.2 9.7 0.00 0.00 0.00 85 1011.4
20260505071010 9 27 3.2 9.7 0.00 0.00 0.00 85 1011.3
20260505070510 9 42 3.2 8.0 0.00 0.00 0.00 85 1011.2
20260505070012 9 16 3.2 4.8 0.00 0.00 0.00 85 1011.5
20260505065510 9 23 1.6 6.4 0.00 0.00 0.00 85 1011.4
20260505065008 8 20 0.0 6.4 0.00 0.00 0.00 86 1011.5
20260505064506 8 0 1.6 6.4 0.00 0.00 0.00 86 1011.5
20260505064007 8 11 1.6 6.4 0.00 0.00 0.00 86 1011.5
20260505063506 8 25 1.6 3.2 0.00 0.00 0.00 86 1011.4
20260505063005 8 0 1.6 3.2 0.00 0.00 0.00 87 1011.5
20260505062504 8 14 0.0 3.2 0.00 0.00 0.00 87 1011.6
20260505062004 8 30 1.6 6.4 0.00 0.00 0.00 87 1011.6
20260505061504 8 0 1.6 6.4 0.00 0.00 0.00 87 1011.5
20260505061005 8 27 0.0 4.8 0.00 0.00 0.00 87 1011.6
20260505060503 8 0 1.6 6.4 0.00 0.00 0.00 87 1011.6
20260505060003 8 30 1.6 6.4 0.00 0.00 0.00 87 1011.5
20260505055502 8 17 1.6 4.8 0.00 0.00 0.00 87 1011.6
20260505055003 8 4 1.6 4.8 0.00 0.00 0.00 87 1011.6
20260505054503 8 0 1.6 4.8 0.00 0.00 0.00 87 1011.7
20260505054004 8 14 1.6 4.8 0.00 0.00 0.00 87 1011.5
20260505053502 7 13 1.6 4.8 0.00 0.00 0.00 88 1011.5
20260505053004 8 20 1.6 4.8 0.00 0.00 0.00 87 1011.5
20260505052503 8 4 1.6 4.8 0.00 0.00 0.00 88 1011.6
20260505052002 7 0 0.0 3.2 0.00 0.00 0.00 88 1011.5
20260505051504 7 37 1.6 3.2 0.00 0.00 0.00 88 1011.5
20260505051003 7 0 1.6 3.2 0.00 0.00 0.00 88 1011.5
20260505050504 7 35 1.6 3.2 0.00 0.00 0.00 88 1011.5
20260505041501 7 41 1.6 6.4 0.00 0.00 0.00 88 1011.4
20260505041001 7 20 1.6 6.4 0.00 0.00 0.00 88 1011.3
20260505040502 7 350 1.6 4.8 0.00 0.00 0.00 88 1011.4
20260505040001 7 13 1.6 4.8 0.00 0.00 0.00 88 1011.4
20260505035501 7 38 1.6 4.8 0.00 0.00 0.00 88 1011.4
20260505035002 7 34 1.6 4.8 0.00 0.00 0.00 88 1011.4
20260505034501 7 24 1.6 4.8 0.00 0.00 0.00 88 1011.4
20260505034001 7 27 1.6 6.4 0.00 0.00 0.00 88 1011.4
20260505033501 8 6 3.2 6.4 0.00 0.00 0.00 88 1011.5
20260505033001 8 31 0.0 3.2 0.00 0.00 0.00 88 1011.4
20260505032503 7 20 1.6 3.2 0.00 0.00 0.00 88 1011.5
20260505031959 7 20 1.6 3.2 0.00 0.00 0.00 88 1011.5
20260505031459 7 25 1.6 8.0 0.00 0.00 0.00 88 1011.6
20260505031000 7 6 3.2 8.0 0.00 0.00 0.00 88 1011.6
20260505030457 8 25 1.6 6.4 0.00 0.00 0.00 88 1011.6
20260505025957 8 13 1.6 6.4 0.00 0.00 0.00 88 1011.6
20260505025459 8 41 3.2 6.4 0.00 0.00 0.00 88 1011.6
20260505024959 8 0 1.6 3.2 0.00 0.00 0.00 88 1011.7
20260505024455 8 16 0.0 6.4 0.00 0.00 0.00 88 1011.7
20260505023956 8 23 1.6 6.4 0.00 0.00 0.00 88 1011.8
20260505023450 8 354 1.6 3.2 0.00 0.00 0.00 88 1011.7
20260505022948 7 39 1.6 3.2 0.00 0.00 0.00 88 1011.8
20260505022448 7 0 1.6 3.2 0.00 0.00 0.00 88 1011.7
20260505021948 7 0 1.6 4.8 0.00 0.00 0.00 88 1011.8
20260505021447 7 351 0.0 4.8 0.00 0.00 0.00 88 1011.8
20260505020946 8 20 1.6 4.8 0.00 0.00 0.00 88 1011.8
20260505020446 8 1 1.6 9.7 0.00 0.00 0.00 88 1012.0
20260505015946 7 0 1.6 9.7 0.00 0.00 0.00 88 1011.9
20260505015445 7 31 3.2 9.7 0.00 0.00 0.00 88 1011.9
20260505014944 8 24 3.2 9.7 0.00 0.00 0.00 88 1011.8
20260505014446 7 6 3.2 9.7 0.00 0.00 0.00 88 1011.8
20260505013943 7 0 3.2 9.7 0.00 0.00 0.00 88 1011.9
20260505013442 8 21 3.2 6.4 0.00 0.00 0.00 88 1012.0
20260505012943 8 0 1.6 9.7 0.00 0.00 0.00 88 1012.0
20260505012440 8 0 3.2 11.3 0.00 0.00 0.00 88 1012.0
20260505011941 8 6 3.2 11.3 0.00 0.00 0.00 88 1012.0
20260505011439 8 0 4.8 9.7 0.00 0.00 0.00 88 1012.1
20260505010939 8 338 3.2 6.4 0.00 0.00 0.00 88 1012.0
20260505010437 8 0 1.6 9.7 0.00 0.00 0.00 88 1012.0
20260505005939 8 0 4.8 9.7 0.00 0.00 0.00 88 1012.0
20260505005438 8 341 1.6 6.4 0.00 0.00 0.00 88 1012.0
20260505004936 8 20 3.2 6.4 0.00 0.00 0.00 88 1012.0
20260505004437 8 56 3.2 9.7 0.00 0.00 0.00 88 1012.0
20260505003934 8 25 3.2 9.7 0.00 0.00 0.00 88 1012.0
20260505003435 8 358 3.2 9.7 0.00 0.00 0.00 88 1012.0
20260505002936 7 0 3.2 9.7 0.00 0.00 0.00 88 1012.1